User: anonymous   Login
Location: Zlin
(49.2330°N, 17.6670°E)
Time: 18:30:58
(UTC+01:00)
Language:

ISS - Orbit

View from above orbital plane
View from above orbital plane
View from above satellite
View from above satellite

Ground track
Ground track

The orbit data is extracted from the following two-line orbital elements,

1 25544U 98067A   14325.56897068  .00025037  00000-0  42490-3 0  4404
2 25544 051.6460 039.3341 0007026 052.3068 089.2363 15.51305649915742
Epoch (UTC): 21 November 2014 13:39:19
Eccentricity: 0.0007026
inclination: 51.6460°
perigee height: 408 km
apogee height: 417 km
right ascension of ascending node: 39.3341°
argument of perigee: 52.3068°
revolutions per day: 15.51305649
mean anomaly at epoch: 89.2363°
orbit number at epoch: 91574

The dashed part of the orbit path shows where the satellite is in the earth's shadow,  

DLR